This demonstration page uses our WeatherBlox Daily Observations layout. Learn more.

Left ArrowRight Arrow

34.16533, -84.80231

Hourly Observations for April 9, 2022

Temp ( °F °C ) Dew Point ( °F °C ) Humidity (%) Winds ( mph kmh ) Pressure ( in mb ) Visibility ( mi km ) Precip ( " mm )
12:15 am 00:15 Cloudy 43 6 30 -1 61 61 W 8 13 29.99 1016 10 16 0.00 0.00
12:35 am 00:35 Cloudy 43 6 30 -1 61 61 W 10 17 29.99 1016 10 16 0.00 0.00
12:55 am 00:55 Cloudy 43 6 30 -1 61 61 W 9 15 29.99 1016 10 16 0.00 0.00
1:15 am 01:15 Cloudy 43 6 30 -1 61 61 W 7 11 29.99 1016 10 16 0.00 0.00
1:35 am 01:35 Cloudy 43 6 30 -1 61 61 W 8 13 29.99 1016 10 16 0.00 0.00
1:55 am 01:55 Cloudy 43 6 30 -1 61 61 W 8 13 29.98 1015 10 16 0.00 0.00
2:15 am 02:15 Cloudy 43 6 30 -1 61 61 W 7 11 29.98 1015 10 16 0.00 0.00
2:35 am 02:35 Cloudy 43 6 32 0 66 66 W 7 11 29.98 1015 10 16 0.00 0.00
2:55 am 02:55 Cloudy 43 6 32 0 66 66 W 6 9 29.97 1015 10 16 0.00 0.00
3:15 am 03:15 Cloudy 43 6 32 0 66 66 W 7 11 29.97 1015 10 16 0.00 0.00
3:35 am 03:35 Cloudy 43 6 32 0 66 66 W 6 9 29.96 1015 10 16 0.00 0.00
3:55 am 03:55 Cloudy 43 6 32 0 66 66 WSW 6 9 29.96 1015 10 16 0.00 0.00
4:15 am 04:15 Cloudy 43 6 32 0 66 66 W 6 9 29.96 1015 10 16 0.00 0.00
4:35 am 04:35 Cloudy 43 6 32 0 66 66 WSW 7 11 29.96 1015 10 16 0.00 0.00
4:55 am 04:55 Cloudy 43 6 30 -1 61 61 W 8 13 29.96 1015 10 16 0.00 0.00
5:15 am 05:15 Cloudy 43 6 30 -1 61 61 W 6 9 29.96 1015 10 16 0.00 0.00
5:35 am 05:35 Cloudy 43 6 30 -1 61 61 W 6 9 29.96 1015 10 16 0.00 0.00
5:55 am 05:55 Cloudy 41 5 30 -1 66 66 WSW 5 7 29.97 1015 10 16 0.00 0.00
6:15 am 06:15 Cloudy 43 6 32 0 66 66 W 6 9 29.97 1015 10 16 0.00 0.00
6:35 am 06:35 Cloudy 41 5 32 0 70 70 W 7 11 29.97 1015 10 16 0.00 0.00
6:55 am 06:55 Cloudy 41 5 32 0 70 70 W 7 11 29.97 1015 10 16 0.00 0.00
7:15 am 07:15 Cloudy 41 5 34 1 76 76 W 8 13 29.98 1015 10 16 0.00 0.00
7:35 am 07:35 Cloudy 41 5 32 0 70 70 W 8 13 29.98 1015 10 16 0.00 0.00
7:55 am 07:55 Cloudy 41 5 32 0 70 70 W 7 11 29.99 1016 10 16 0.00 0.00
8:15 am 08:15 Cloudy 41 5 30 -1 66 66 W 8 13 30.00 1016 10 16 0.00 0.00
8:35 am 08:35 Cloudy 41 5 30 -1 66 66 VRB 7 11 30.01 1016 10 16 0.00 0.00
8:55 am 08:55 Cloudy 41 5 30 -1 66 66 W 9 15 30.01 1016 10 16 0.00 0.00
9:15 am 09:15 Cloudy 41 5 30 -1 66 66 W 8 13 30.01 1016 10 16 0.00 0.00
9:35 am 09:35 Cloudy 41 5 32 0 70 70 W 8 13 30.02 1017 10 16 0.00 0.00
9:55 am 09:55 Cloudy 41 5 32 0 70 70 W 8 13 30.02 1017 10 16 0.00 0.00
10:15 am 10:15 Cloudy 41 5 32 0 70 70 W 13 20 30.03 1017 10 16 0.00 0.00
10:35 am 10:35 Cloudy 43 6 30 -1 61 61 W 13 20 30.04 1017 10 16 0.00 0.00
10:55 am 10:55 Mostly Cloudy 43 6 30 -1 61 61 W 15 24 30.04 1017 10 16 0.00 0.00
11:15 am 11:15 Mostly Cloudy 45 7 30 -1 57 57 W 10 17 30.04 1017 10 16 0.00 0.00
11:35 am 11:35 Mostly Cloudy 45 7 28 -2 53 53 W 12 19 30.05 1018 10 16 0.00 0.00
11:55 am 11:55 Cloudy 45 7 30 -1 57 57 W 14 22 30.05 1018 10 16 0.00 0.00
12:15 pm 12:15 Cloudy 46 8 28 -2 50 50 W 14 22 30.05 1017 10 16 0.00 0.00
12:35 pm 12:35 Mostly Cloudy 46 8 28 -2 50 50 W 13 20 30.04 1017 10 16 0.00 0.00
12:55 pm 12:55 Cloudy 46 8 25 -4 43 43 W 17 28 30.03 1017 10 16 0.00 0.00
1:15 pm 13:15 Cloudy 48 9 25 -4 40 40 W 12 19 30.02 1017 10 16 0.00 0.00
1:35 pm 13:35 Cloudy 48 9 25 -4 40 40 W 20 31 30.01 1016 10 16 0.00 0.00
1:55 pm 13:55 Mostly Cloudy 50 10 25 -4 37 37 W 17 28 30.01 1016 10 16 0.00 0.00
2:15 pm 14:15 Mostly Cloudy 50 10 23 -5 35 35 W 16 26 30.01 1016 10 16 0.00 0.00
2:35 pm 14:35 Mostly Cloudy 52 11 25 -4 35 35 W 17 28 30.01 1016 10 16 0.00 0.00
2:55 pm 14:55 Mostly Cloudy 52 11 25 -4 35 35 W 14 22 30.01 1016 10 16 0.00 0.00
3:15 pm 15:15 Mostly Cloudy 52 11 23 -5 32 32 W 16 26 30.00 1016 10 16 0.00 0.00
3:35 pm 15:35 Mostly Cloudy 52 11 25 -4 35 35 W 18 30 30.00 1016 10 16 0.00 0.00
3:55 pm 15:55 Mostly Cloudy 54 12 25 -4 33 33 W 18 30 29.98 1015 10 16 0.00 0.00
4:15 pm 16:15 Mostly Cloudy 54 12 27 -3 35 35 W 16 26 29.97 1015 10 16 0.00 0.00
4:35 pm 16:35 Partly Cloudy 54 12 27 -3 35 35 W 17 28 29.97 1015 10 16 0.00 0.00
4:55 pm 16:55 Partly Cloudy 54 12 25 -4 33 33 W 17 28 29.96 1015 10 16 0.00 0.00
5:15 pm 17:15 Partly Cloudy 55 13 27 -3 33 33 WNW 13 20 29.97 1015 10 16 0.00 0.00
5:35 pm 17:35 Mostly Cloudy 55 13 25 -4 31 31 W 18 30 29.96 1015 10 16 0.00 0.00
5:55 pm 17:55 Mostly Cloudy 55 13 25 -4 31 31 W 13 20 29.96 1015 10 16 0.00 0.00
6:15 pm 18:15 Mostly Sunny 57 14 25 -4 29 29 W 13 20 29.96 1015 10 16 0.00 0.00
6:35 pm 18:35 Mostly Sunny 55 13 27 -3 33 33 W 12 19 29.96 1015 10 16 0.00 0.00
6:55 pm 18:55 Sunny 57 14 27 -3 31 31 W 9 15 29.96 1015 10 16 0.00 0.00
7:15 pm 19:15 Mostly Sunny 55 13 25 -4 31 31 W 16 26 29.97 1015 10 16 0.00 0.00
7:35 pm 19:35 Mostly Sunny 55 13 25 -4 31 31 W 8 13 29.97 1015 10 16 0.00 0.00
7:55 pm 19:55 Sunny 54 12 27 -3 35 35 W 5 7 29.97 1015 10 16 0.00 0.00
8:15 pm 20:15 Clear 54 12 27 -3 35 35 W 3 6 29.98 1015 10 16 0.00 0.00
8:35 pm 20:35 Clear 52 11 28 -2 41 41 Calm 29.99 1015 10 16 0.00 0.00
8:55 pm 20:55 Clear 50 10 28 -2 43 43 Calm 30.00 1016 10 16 0.00 0.00
9:15 pm 21:15 Mostly Clear 48 9 30 -1 50 50 Calm 30.01 1016 10 16 0.00 0.00
9:35 pm 21:35 Mostly Clear 46 8 32 0 57 57 Calm 30.02 1016 10 16 0.00 0.00
9:55 pm 21:55 Mostly Clear 46 8 30 -1 53 53 Calm 30.03 1017 10 16 0.00 0.00
10:15 pm 22:15 Clear 45 7 30 -1 57 57 Calm 30.04 1017 10 16 0.00 0.00
10:35 pm 22:35 Clear 45 7 30 -1 57 57 Calm 30.05 1018 10 16 0.00 0.00
10:55 pm 22:55 Clear 45 7 32 0 61 61 Calm 30.05 1018 10 16 0.00 0.00
11:15 pm 23:15 Clear 43 6 34 1 71 71 Calm 30.05 1018 10 16 0.00 0.00
11:35 pm 23:35 Clear 41 5 36 2 81 81 Calm 30.06 1018 10 16 0.00 0.00
11:55 pm 23:55 Clear 41 5 34 1 76 76 Calm 30.06 1018 10 16 0.00 0.00

Powered by AerisWeather